Pampa, TX

12:25 AM CDT on July 21, 2017 (GMT -0500)
Perry Lefors

Weather History for KPPA - January, 2013

Change the Weather History Date:

Saturday, January 26, 2013

  Actual Average Record
Temperature  
Mean Temperature 44 °F -  
Max Temperature 59 °F 50 °F 72 °F (1969)
Min Temperature 30 °F 23 °F 0 °F (1966)
Degree Days  
Heating Degree Days 20    
Moisture  
Dew Point 28 °F    
Average Humidity 58    
Maximum Humidity 80    
Minimum Humidity 31    
Precipitation  
Precipitation 0.00 in - - ()
Sea Level Pressure  
Sea Level Pressure 30.05 in    
Wind  
Wind Speed 13 mph (South)    
Max Wind Speed 24 mph    
Max Gust Speed 32 mph    
Visibility 9 miles    
Events Rain    
Averages and records for this station are not official NWS values.
T = Trace of Precipitation, MM = Missing Value Source: NWS Daily Summary

Daily Weather History Graph

Daily Weather History Graph

Search for Another Location

Airport or City:

Trip Planner

Search our weather history database for the weather conditions in past years. The results will help you decide how hot, cold, wet, or windy it might be!

Date:

Astronomy

Jan. 26, 2013 Rise Set
Actual Time 7:47 AM CST 6:05 PM CST
Civil Twilight 7:20 AM CST 6:32 PM CST
Nautical Twilight 6:49 AM CST 7:03 PM CST
Astronomical Twilight 6:19 AM CST 7:33 PM CST
Moon 6:00 PM CST (1/26) 7:08 AM CST (1/26)
Length of Visible Light 11h 12m
Length of Day
10h 17m
Full, 100% of the Moon is Illuminated
Jan 26
Full
Jan 26
Full
Feb 3
Last Quarter
Feb 10
New
Feb 17
First Quarter

Hourly Weather History & Observations

Time (CST) Temp. Windchill Dew Point Humidity Pressure Visibility Wind Dir Wind Speed Gust Speed Precip Events Conditions
12:15 AM 33.8 °F 27.7 °F 24.8 °F 70% 30.17 in 10.0 mi SE 6.9 mph - N/A   Clear
12:35 AM 32.0 °F 24.2 °F 24.8 °F 75% 30.17 in 10.0 mi SSE 9.2 mph - N/A   Clear
12:55 AM 32.0 °F 24.2 °F 24.8 °F 75% 30.16 in 10.0 mi SSE 9.2 mph - N/A   Clear
1:15 AM 32.0 °F 24.2 °F 24.8 °F 75% 30.16 in 10.0 mi SSE 9.2 mph - N/A   Clear
1:35 AM 32.0 °F 24.8 °F 24.8 °F 75% 30.15 in 10.0 mi SSE 8.1 mph - N/A   Clear
1:55 AM 32.0 °F 24.8 °F 24.8 °F 75% 30.15 in 10.0 mi SSE 8.1 mph - N/A   Clear
2:15 AM 32.0 °F 25.6 °F 24.8 °F 75% 30.15 in 10.0 mi SSE 6.9 mph - N/A   Clear
2:35 AM 32.0 °F 24.8 °F 24.8 °F 75% 30.14 in 10.0 mi South 8.1 mph - N/A   Clear
2:55 AM 32.0 °F 25.6 °F 24.8 °F 75% 30.14 in 10.0 mi South 6.9 mph - N/A   Clear
3:15 AM 30.2 °F 21.3 °F 24.8 °F 80% 30.13 in 7.0 mi SSE 10.4 mph - N/A   Clear
3:35 AM 32.0 °F 27.5 °F 24.8 °F 75% 30.14 in 10.0 mi South 4.6 mph - N/A   Clear
3:55 AM 32.0 °F 25.6 °F 23.0 °F 69% 30.13 in 10.0 mi SSE 6.9 mph - N/A   Clear
4:15 AM 30.2 °F 24.3 °F 23.0 °F 75% 30.12 in 10.0 mi ESE 5.8 mph - N/A   Clear
4:35 AM 32.0 °F 24.8 °F 24.8 °F 75% 30.11 in 7.0 mi SSE 8.1 mph - N/A   Clear
4:55 AM 32.0 °F 24.8 °F 26.6 °F 80% 30.10 in 7.0 mi SE 8.1 mph - N/A   Clear
5:15 AM 32.0 °F 24.2 °F 26.6 °F 80% 30.10 in 7.0 mi SSE 9.2 mph - N/A   Clear
5:35 AM 32.0 °F 23.6 °F 26.6 °F 80% 30.10 in 7.0 mi SSE 10.4 mph - N/A   Clear
6:15 AM 32.0 °F 23.0 °F 26.6 °F 80% 30.10 in 7.0 mi SSE 11.5 mph - N/A   Clear
6:35 AM 32.0 °F 21.6 °F 26.6 °F 80% 30.10 in 10.0 mi South 15.0 mph - N/A   Clear
7:15 AM 32.0 °F 23.0 °F 26.6 °F 80% 30.10 in 7.0 mi SSE 11.5 mph - N/A   Clear
7:35 AM 32.0 °F 22.5 °F 26.6 °F 80% 30.11 in 7.0 mi SSE 12.7 mph - N/A   Clear
7:55 AM 32.0 °F 22.5 °F 26.6 °F 80% 30.11 in 7.0 mi South 12.7 mph - N/A   Clear
8:15 AM 33.8 °F 24.3 °F 26.6 °F 75% 30.11 in 7.0 mi South 13.8 mph - N/A   Clear
8:35 AM 33.8 °F 23.2 °F 26.6 °F 75% 30.11 in 7.0 mi South 17.3 mph - N/A   Clear
8:55 AM 37.4 °F 27.8 °F 28.4 °F 70% 30.12 in 7.0 mi SSW 17.3 mph - N/A   Clear
9:15 AM 41.0 °F 31.6 °F 28.4 °F 61% 30.11 in 7.0 mi South 20.7 mph 25.3 mph N/A   Clear
9:35 AM 42.8 °F 34.5 °F 28.4 °F 57% 30.10 in 10.0 mi South 18.4 mph - N/A   Clear
9:55 AM 44.6 °F 36.9 °F 28.4 °F 53% 30.10 in 10.0 mi SSW 18.4 mph - N/A   Clear
10:15 AM 46.4 °F 40.1 °F 28.4 °F 50% 30.10 in 10.0 mi SSW 15.0 mph - N/A   Clear
10:35 AM 50.0 °F - 26.6 °F 40% 30.09 in 10.0 mi South 17.3 mph 21.9 mph N/A   Clear
10:55 AM 51.8 °F - 26.6 °F 38% 30.09 in 10.0 mi South 17.3 mph 20.7 mph N/A   Clear
11:15 AM 53.6 °F - 26.6 °F 35% 30.09 in 10.0 mi South 16.1 mph - N/A   Clear
11:35 AM 51.8 °F - 26.6 °F 38% 30.08 in 10.0 mi South 16.1 mph - N/A   Scattered Clouds
11:55 AM 51.8 °F - 28.4 °F 41% 30.08 in 10.0 mi South 18.4 mph - N/A   Mostly Cloudy
12:15 PM 51.8 °F - 28.4 °F 41% 30.07 in 10.0 mi South 13.8 mph - N/A   Mostly Cloudy
12:35 PM 51.8 °F - 28.4 °F 41% 30.06 in 10.0 mi South 16.1 mph 19.6 mph N/A   Mostly Cloudy
12:55 PM 55.4 °F - 28.4 °F 36% 30.05 in 10.0 mi South 19.6 mph 24.2 mph N/A   Scattered Clouds
1:15 PM 59.0 °F - 28.4 °F 31% 30.03 in 10.0 mi South 18.4 mph 23.0 mph N/A   Scattered Clouds
1:35 PM 57.2 °F - 28.4 °F 33% 30.01 in 10.0 mi South 19.6 mph 26.5 mph N/A   Mostly Cloudy
1:55 PM 59.0 °F - 28.4 °F 31% 30.01 in 10.0 mi South 20.7 mph 26.5 mph N/A   Overcast
2:15 PM 55.4 °F - 28.4 °F 36% 30.00 in 10.0 mi South 18.4 mph - N/A   Overcast
2:35 PM 57.2 °F - 28.4 °F 33% 30.00 in 10.0 mi South 19.6 mph 23.0 mph N/A   Overcast
2:55 PM 55.4 °F - 30.2 °F 38% 30.00 in 10.0 mi South 15.0 mph - N/A Rain Light Rain
3:15 PM 57.2 °F - 30.2 °F 36% 29.99 in 10.0 mi South 16.1 mph 21.9 mph N/A   Mostly Cloudy
3:35 PM 55.4 °F - 30.2 °F 38% 29.99 in 10.0 mi South 18.4 mph - N/A   Mostly Cloudy
3:55 PM 55.4 °F - 30.2 °F 38% 29.99 in 10.0 mi South 19.6 mph 24.2 mph N/A   Overcast
4:15 PM 55.4 °F - 30.2 °F 38% 29.98 in 10.0 mi South 18.4 mph 24.2 mph N/A   Overcast
4:35 PM 55.4 °F - 30.2 °F 38% 29.98 in 10.0 mi South 18.4 mph 21.9 mph N/A   Scattered Clouds
4:55 PM 53.6 °F - 30.2 °F 41% 29.97 in 10.0 mi South 16.1 mph 21.9 mph N/A   Clear
5:15 PM 53.6 °F - 30.2 °F 41% 29.97 in 10.0 mi South 16.1 mph 21.9 mph N/A   Clear
5:35 PM 51.8 °F - 30.2 °F 44% 29.97 in 10.0 mi South 20.7 mph 24.2 mph N/A   Mostly Cloudy
5:55 PM 51.8 °F - 30.2 °F 44% 29.95 in 10.0 mi South 18.4 mph 25.3 mph N/A   Overcast
6:15 PM 50.0 °F - 30.2 °F 47% 29.96 in 10.0 mi South 21.9 mph - N/A   Overcast
6:55 PM 48.2 °F - 30.2 °F 50% 29.96 in 10.0 mi South 24.2 mph 28.8 mph N/A   Scattered Clouds
7:15 PM 48.2 °F - 32.0 °F 54% 29.96 in 10.0 mi South 23.0 mph 28.8 mph N/A   Mostly Cloudy
7:35 PM 48.2 °F - 32.0 °F 54% 29.96 in 10.0 mi South 19.6 mph 26.5 mph N/A   Scattered Clouds
7:55 PM 48.2 °F - 32.0 °F 54% 29.95 in 10.0 mi SSE 23.0 mph 27.6 mph N/A   Mostly Cloudy
8:35 PM 46.4 °F 38.5 °F 32.0 °F 57% 29.93 in 10.0 mi SSE 21.9 mph 28.8 mph N/A   Mostly Cloudy
8:55 PM 46.4 °F 38.3 °F 32.0 °F 57% 29.93 in 10.0 mi SSE 23.0 mph 29.9 mph N/A   Overcast
9:15 PM 46.4 °F 38.3 °F 32.0 °F 57% 29.93 in 10.0 mi South 23.0 mph 29.9 mph N/A   Overcast
9:35 PM 46.4 °F 38.7 °F 32.0 °F 57% 29.92 in 10.0 mi South 20.7 mph 31.1 mph N/A   Overcast
9:55 PM 46.4 °F 38.1 °F 32.0 °F 57% 29.94 in 10.0 mi South 24.2 mph 31.1 mph N/A   Mostly Cloudy
10:15 PM 46.4 °F 38.1 °F 33.8 °F 62% 29.94 in 10.0 mi South 24.2 mph 32.2 mph N/A   Mostly Cloudy
10:35 PM 46.4 °F 38.1 °F 33.8 °F 62% 29.94 in 10.0 mi South 24.2 mph 28.8 mph N/A   Overcast
10:55 PM 46.4 °F 38.5 °F 33.8 °F 62% 29.93 in 10.0 mi South 21.9 mph 28.8 mph N/A   Overcast
11:15 PM 44.6 °F 35.7 °F 33.8 °F 66% 29.94 in 10.0 mi South 24.2 mph 28.8 mph N/A   Overcast
11:35 PM 44.6 °F 35.9 °F 33.8 °F 66% 29.95 in 10.0 mi South 23.0 mph 27.6 mph N/A   Scattered Clouds
11:55 PM 44.6 °F 35.9 °F 33.8 °F 66% 29.93 in 10.0 mi South 23.0 mph 28.8 mph N/A   Scattered Clouds